This is the latest recevied weather packets stored in our database for station/object KE4AMH. If no packets are shown the sender has not sent any weather packets the latest 10 day(s).
| Time | Temp. | Humidity | Pressure | Rain* | Wind** | Luminosity | Snow |
|---|---|---|---|---|---|---|---|
| 1777955039 | 14.44° C | 73% | 1015.1 hPa | 0 mm | - | 0 W/m² | - |
| 1777954736 | 14.44° C | 74% | 1015.2 hPa | 0 mm | - | 0 W/m² | - |
| 1777954433 | 14.44° C | 73% | 1015.1 hPa | 0 mm | - | 0 W/m² | - |
| 1777954130 | 15° C | 71% | 1015.3 hPa | 0 mm | - | 0 W/m² | - |
| 1777953828 | 15.56° C | 68% | 1015.3 hPa | 0 mm | - | 0 W/m² | - |
| 1777953524 | 15.56° C | 68% | 1015.4 hPa | 0 mm | - | 0 W/m² | - |
| 1777953220 | 16.11° C | 67% | 1015.2 hPa | 0 mm | - | 0 W/m² | - |
| 1777952918 | 16.67° C | 61% | 1015.2 hPa | 0 mm | - | 0 W/m² | - |
| 1777952614 | 16.67° C | 60% | 1015.1 hPa | 0 mm | - | 0 W/m² | - |
| 1777952312 | 16.67° C | 59% | 1015.2 hPa | 0 mm | - | 0 W/m² | - |
| 1777952008 | 17.22° C | 59% | 1015.3 hPa | 0 mm | - | 0 W/m² | - |
| 1777951707 | 17.22° C | 58% | 1015.3 hPa | 0 mm | - | 0 W/m² | - |
| 1777951402 | 16.67° C | 62% | 1015.3 hPa | 0 mm | - | 0 W/m² | - |
| 1777951100 | 16.67° C | 65% | 1015.3 hPa | 0 mm | - | 0 W/m² | - |
| 1777950796 | 17.22° C | 65% | 1015.3 hPa | 0 mm | - | 0 W/m² | - |
| 1777950494 | 17.78° C | 61% | 1015.2 hPa | 0 mm | - | 0 W/m² | - |
| 1777950190 | 17.78° C | 56% | 1015.3 hPa | 0 mm | - | 0 W/m² | - |
| 1777949885 | 18.33° C | 56% | 1015.4 hPa | 0 mm | - | 0 W/m² | - |
| 1777949583 | 18.33° C | 57% | 1015.4 hPa | 0 mm | - | 0 W/m² | - |
| 1777949281 | 18.33° C | 56% | 1015.4 hPa | 0 mm | - | 0 W/m² | - |
| 1777948978 | 18.33° C | 56% | 1015.2 hPa | 0 mm | - | 0 W/m² | - |
| 1777948676 | 18.33° C | 55% | 1015.2 hPa | 0 mm | - | 0 W/m² | - |
| 1777948372 | 18.89° C | 55% | 1015.3 hPa | 0 mm | - | 0 W/m² | - |
| 1777948070 | 18.33° C | 55% | 1015.3 hPa | 0 mm | - | 0 W/m² | - |
| 1777947767 | 18.89° C | 56% | 1015.3 hPa | 0 mm | - | 0 W/m² | - |
* Rain latest hour (hover to see other rain measurements)
** Current wind speed in m/s (hover to see current wind gust speed)